Location: Cannifist
(18.2333°N, 63.0167°W)
Time: 19:45:15
(UTC+00:00)

X-37B - Visible Passes

Search period start: 12 June 2021 00:00
Search period end: 22 June 2021 00:00
Orbit: 386 x 389 km, 45.0° (Epoch: 10 June)

Date Brightness Start Highest point End Pass type
(mag) Time Alt. Az. Time Alt. Az. Time Alt. Az.
20 Jun 2.7 23:12:16 10° SE 23:12:36 10° SE 23:12:57 10° SE visible
21 Jun 2.9 00:46:02 10° WSW 00:47:28 22° W 00:47:28 22° W visible
21 Jun 3.1 08:56:59 10° NNW 08:59:42 26° NE 09:02:24 10° E visible
21 Jun 0.4 23:47:29 10° SW 23:50:39 76° SE 23:53:48 10° NE visible
